THOR ABLESTAR DEB, 233

Orbit data source: Space-Track

THOR ABLESTAR DEB, 233 is space debris in LEO originally from a launch on Thu, 29 Jun 1961 UTC launched from the Air Force Eastern Test Range (AFETR). Debris objects in space refer to the collection of defunct objects orbiting the Earth. Examples of debris include non-operational satellites, rocket bodies, and fragments generated from explosions, collisions, or faulty payload assembly.

Loading next visibility...
Identifier
233, 1961-015BR
Orbit
LEO
Last TLE update
16 hours ago
Origin
Manufacturer
Unknown
Mission
Spacecraft
Bus & Motor
Unknown
Mass
Unknown
Launch date (UTC)
1961-06-29 (64 years ago)
Launch vehicle
Unknown
Launch site
Air Force Eastern Test Range (AFETR)
Object type
Payload
Rocket body
Debris
Shape & HBR
Unknown
Radar Cross Section
Medium (>0.1 m² and <1 m²)

Expand to show TLE details & history

TLE from 16 hours ago
0 THOR ABLESTAR DEB
1 00233U 61015BR  25128.68044682  .00077250  00000-0  32021-2 0  9998
2 00233  66.8267 235.7983 0014956 336.2584  23.7870 15.23349207319093
Epoch: 2025-05-08T16:19Z
Definitive object data (Epoch: 2025-05-08T16:19:50.605Z)
Latitude
-0.00006°
Longitude
124.08995°
Altitude
488.549 km
Speed
7.626 km/s
True Right ascension
15h 43m 11s
True Declination
0° 00' 00"
Sunlit
Object was in full shadow at TLE epoch
Visualization TLE readout
Latitude
-32.20516°
Longitude
106.57749°
Altitude
496.669 km
Speed
7.621 km/s
Apparent Right ascension
10h 50m 57s
Apparent Declination
-73° 15' 48"
Sunlit
Object is in full shadow
Visualization observer readout
Local Sidereal Time
16:05:05
Azimuth
200.1° SSW
Elevation
-34.791°
Doppler factor
1
Orbital elements
Apogee altitude
504.314 km
Perigee altitude
483.758 km
Semi-major axis
6,872.173 km
Eccentricity
0.0014956
Inclination
66.8267°
RAAN
235.7983°
Arg. of periapsis
336.2584°
True anomaly
23.85624°
Mean anomaly
23.787°
Eccentric anomaly
23.82161°
Mean motion
3.8098 °/min
BSTAR
0.0032021
Orbital period
94.49 mins
Loading maneuver chart data...
Loading SW <> Apogee altitude chart data...

THOR ABLESTAR DEB Visibility forecast

Observer location: undefined°, undefined°

Span
Click to sort rows by Start time (UTC) header in descending order
Start Az.
Max El. time (UTC)
Max El. Az.
Max El.
End time (UTC)
End Az.
6 mins2025-05-09 08:13:00.754Z176.359° S2025-05-09 08:16:00.754Z115.483° SE29.094°2025-05-09 08:19:00.754Z50.567° ENE
6 mins2025-05-09 18:06:00.754Z319.988° NNW2025-05-09 18:08:00.754Z276.232° WNW40.606°2025-05-09 18:12:00.754Z163.009° S
4 mins2025-05-10 07:52:00.754Z158.559° S2025-05-10 07:54:00.754Z109.847° ESE25.515°2025-05-10 07:56:00.754Z63.409° ENE
|